Time,TemperatureF,DewpointF,PressureIn,WindDirection,WindDirectionDegrees,WindSpeedMPH,WindSpeedGustMPH,Humidity,HourlyPrecipIn,Conditions,Clouds,dailyrainin,SoftwareType,DateUTC
2013-01-31 00:10:00,58.1,56.4,29.42,SW,222,6.0,6.0,94,0.00,,,0.00,Wunderground v.1.15,2013-01-31 05:10:00,
2013-01-31 00:20:00,58.2,56.5,29.41,WSW,252,4.0,8.0,94,0.00,,,0.00,Wunderground v.1.15,2013-01-31 05:20:00,
2013-01-31 00:30:00,58.5,56.5,29.40,SW,235,4.0,8.0,93,0.00,,,0.00,Wunderground v.1.15,2013-01-31 05:30:00,
2013-01-31 00:40:00,59.1,56.8,29.39,WSW,251,6.0,6.0,92,0.00,,,0.00,Wunderground v.1.15,2013-01-31 05:40:00,
2013-01-31 00:50:00,59.1,56.8,29.38,NE,34,4.0,4.0,92,0.00,,,0.00,Wunderground v.1.15,2013-01-31 05:50:00,
2013-01-31 01:00:00,59.2,57.2,29.37,WSW,244,5.0,8.0,93,0.00,,,0.00,Wunderground v.1.15,2013-01-31 06:00:00,
2013-01-31 01:10:00,59.2,57.2,29.36,SSW,209,6.0,7.0,93,0.00,,,0.00,Wunderground v.1.15,2013-01-31 06:10:00,
2013-01-31 01:20:00,59.3,57.3,29.34,SSW,204,6.0,6.0,93,0.00,,,0.00,Wunderground v.1.15,2013-01-31 06:20:00,
2013-01-31 01:30:00,59.3,57.3,29.34,WSW,242,5.0,8.0,93,0.00,,,0.00,Wunderground v.1.15,2013-01-31 06:30:00,
2013-01-31 01:40:00,59.5,57.2,29.33,SW,222,7.0,13.0,92,0.00,,,0.00,Wunderground v.1.15,2013-01-31 06:40:00,
2013-01-31 01:50:00,59.7,57.4,29.32,SSW,207,6.0,6.0,92,0.00,,,0.00,Wunderground v.1.15,2013-01-31 06:50:00,
2013-01-31 02:00:00,59.9,57.6,29.31,SSW,204,7.0,7.0,92,0.00,,,0.00,Wunderground v.1.15,2013-01-31 07:00:00,
2013-01-31 02:10:00,59.6,57.6,29.30,WSW,241,5.0,5.0,93,0.00,,,0.00,Wunderground v.1.15,2013-01-31 07:10:00,
2013-01-31 02:20:00,59.5,57.8,29.29,WSW,238,5.0,6.0,94,0.00,,,0.00,Wunderground v.1.15,2013-01-31 07:20:00,
2013-01-31 02:30:00,59.6,57.9,29.28,NNE,24,6.0,6.0,94,0.00,,,0.01,Wunderground v.1.15,2013-01-31 07:30:00,
2013-01-31 02:40:00,59.6,57.9,29.26,South,186,6.0,6.0,94,0.00,,,0.01,Wunderground v.1.15,2013-01-31 07:40:00,
2013-01-31 02:50:00,59.6,57.9,29.24,WSW,257,5.0,5.0,94,0.00,,,0.01,Wunderground v.1.15,2013-01-31 07:50:00,
2013-01-31 03:00:00,59.9,58.2,29.23,South,183,6.0,6.0,94,0.00,,,0.01,Wunderground v.1.15,2013-01-31 08:00:00,
2013-01-31 03:10:00,60.4,58.4,29.22,SSW,209,8.0,10.0,93,0.00,,,0.01,Wunderground v.1.15,2013-01-31 08:10:00,
2013-01-31 03:20:00,60.3,58.3,29.20,SSW,208,7.0,7.0,93,0.00,,,0.01,Wunderground v.1.15,2013-01-31 08:20:00,
2013-01-31 03:29:00,60.3,58.3,29.19,WSW,244,7.0,7.0,93,0.00,,,0.02,Wunderground v.1.15,2013-01-31 08:29:00,
2013-01-31 03:40:00,60.7,58.4,29.18,WSW,254,8.0,17.0,92,0.00,,,0.02,Wunderground v.1.15,2013-01-31 08:40:00,
2013-01-31 03:50:00,60.7,58.1,29.16,South,177,8.0,8.0,91,0.00,,,0.02,Wunderground v.1.15,2013-01-31 08:50:00,
2013-01-31 04:00:00,60.8,58.2,29.15,SW,224,9.0,13.0,91,0.00,,,0.02,Wunderground v.1.15,2013-01-31 09:00:00,
2013-01-31 04:09:00,60.7,58.1,29.13,SW,218,6.0,6.0,91,0.00,,,0.02,Wunderground v.1.15,2013-01-31 09:09:00,
2013-01-31 04:20:00,60.9,58.3,29.13,SSW,210,9.0,9.0,91,0.00,,,0.02,Wunderground v.1.15,2013-01-31 09:20:00,
2013-01-31 04:50:00,60.5,58.2,29.10,SE,142,8.0,9.0,92,0.00,,,0.03,Wunderground v.1.15,2013-01-31 09:50:00,
2013-01-31 04:59:00,60.6,58.3,29.10,WSW,244,8.0,8.0,92,0.00,,,0.03,Wunderground v.1.15,2013-01-31 09:59:00,
2013-01-31 05:10:00,60.5,58.2,29.08,SSE,165,8.0,8.0,92,0.11,,,0.05,Wunderground v.1.15,2013-01-31 10:10:00,
2013-01-31 05:20:00,60.4,58.4,29.07,SSW,194,7.0,7.0,93,0.13,,,0.07,Wunderground v.1.15,2013-01-31 10:20:00,
2013-01-31 05:30:00,60.3,58.3,29.06,SSW,192,8.0,8.0,93,0.22,,,0.11,Wunderground v.1.15,2013-01-31 10:30:00,
2013-01-31 06:00:00,59.2,57.5,29.00,SW,230,7.0,7.0,94,0.36,,,0.27,Wunderground v.1.15,2013-01-31 11:00:00,
2013-01-31 06:20:00,59.1,57.7,29.00,NNE,15,7.0,7.0,95,0.10,,,0.31,Wunderground v.1.15,2013-01-31 11:20:00,
2013-01-31 06:30:00,59.9,58.5,29.01,SW,223,9.0,9.0,95,0.20,,,0.34,Wunderground v.1.15,2013-01-31 11:30:00,
2013-01-31 06:40:00,60.2,58.5,29.02,SW,221,8.0,8.0,94,0.10,,,0.36,Wunderground v.1.15,2013-01-31 11:40:00,
2013-01-31 06:50:00,60.1,58.1,29.03,SSW,196,6.0,10.0,93,0.08,,,0.37,Wunderground v.1.15,2013-01-31 11:50:00,
2013-01-31 07:00:00,59.6,57.0,29.03,West,279,7.0,7.0,91,0.04,,,0.37,Wunderground v.1.15,2013-01-31 12:00:00,
2013-01-31 07:10:00,58.8,56.2,29.03,WSW,250,4.0,4.0,91,0.00,,,0.37,Wunderground v.1.15,2013-01-31 12:10:00,
2013-01-31 07:20:00,58.1,55.5,29.02,SSW,211,3.0,6.0,91,0.00,,,0.37,Wunderground v.1.15,2013-01-31 12:20:00,
2013-01-31 07:30:00,57.9,55.3,29.00,SSW,211,4.0,4.0,91,0.00,,,0.37,Wunderground v.1.15,2013-01-31 12:30:00,
2013-01-31 07:40:00,57.7,55.1,28.97,South,186,3.0,3.0,91,0.00,,,0.37,Wunderground v.1.15,2013-01-31 12:40:00,
2013-01-31 07:50:00,57.8,55.2,28.98,NW,305,4.0,5.0,91,0.00,,,0.37,Wunderground v.1.15,2013-01-31 12:50:00,
2013-01-31 08:00:00,58.0,55.1,28.97,SW,217,5.0,5.0,90,0.00,,,0.37,Wunderground v.1.15,2013-01-31 13:00:00,
2013-01-31 08:10:00,58.0,54.8,28.97,SW,229,5.0,5.0,89,0.00,,,0.37,Wunderground v.1.15,2013-01-31 13:10:00,
2013-01-31 08:20:00,58.1,54.6,28.96,South,182,5.0,15.0,88,0.00,,,0.38,Wunderground v.1.15,2013-01-31 13:20:00,
2013-01-31 08:30:00,58.2,54.3,28.96,WSW,246,6.0,13.0,87,0.00,,,0.38,Wunderground v.1.15,2013-01-31 13:30:00,
2013-01-31 08:40:00,58.0,53.8,28.94,NE,35,5.0,5.0,86,0.00,,,0.38,Wunderground v.1.15,2013-01-31 13:40:00,
2013-01-31 08:50:00,57.9,53.7,28.96,SSW,211,6.0,6.0,86,0.00,,,0.38,Wunderground v.1.15,2013-01-31 13:50:00,
2013-01-31 09:00:00,57.8,53.3,28.95,SW,229,6.0,6.0,85,0.00,,,0.38,Wunderground v.1.15,2013-01-31 14:00:00,
2013-01-31 09:10:00,57.7,52.9,28.95,ESE,121,5.0,5.0,84,0.00,,,0.38,Wunderground v.1.15,2013-01-31 14:10:00,
2013-01-31 09:20:00,57.5,52.7,28.95,WNW,292,5.0,6.0,84,0.00,,,0.38,Wunderground v.1.15,2013-01-31 14:20:00,
2013-01-31 09:30:00,49.3,43.7,29.03,WNW,290,9.0,13.0,81,0.50,,,0.40,Wunderground v.1.15,2013-01-31 14:30:00,
2013-01-31 09:40:00,44.7,41.1,29.05,SW,230,9.0,9.0,87,0.26,,,0.45,Wunderground v.1.15,2013-01-31 14:40:00,
2013-01-31 09:50:00,44.0,40.1,29.06,WSW,249,9.0,9.0,86,0.06,,,0.45,Wunderground v.1.15,2013-01-31 14:50:00,
2013-01-31 09:59:00,43.7,39.8,29.07,NW,315,8.0,8.0,86,0.00,,,0.45,Wunderground v.1.15,2013-01-31 14:59:00,
2013-01-31 10:10:00,43.5,40.2,29.07,WNW,299,7.0,7.0,88,0.00,,,0.45,Wunderground v.1.15,2013-01-31 15:10:00,
2013-01-31 10:20:00,43.0,40.3,29.08,West,265,4.0,5.0,90,0.00,,,0.46,Wunderground v.1.15,2013-01-31 15:20:00,
2013-01-31 10:30:00,43.2,39.9,29.09,WNW,296,6.0,10.0,88,0.00,,,0.46,Wunderground v.1.15,2013-01-31 15:30:00,
2013-01-31 10:40:00,43.7,40.1,29.11,WNW,287,5.0,6.0,87,0.00,,,0.46,Wunderground v.1.15,2013-01-31 15:40:00,
2013-01-31 10:50:00,44.1,39.0,29.12,NW,306,7.0,7.0,82,0.00,,,0.46,Wunderground v.1.15,2013-01-31 15:50:00,
2013-01-31 11:00:00,44.2,38.1,29.13,WNW,293,7.0,12.0,79,0.00,,,0.46,Wunderground v.1.15,2013-01-31 16:00:00,
2013-01-31 11:10:00,44.9,37.5,29.14,NW,308,7.0,7.0,75,0.00,,,0.46,Wunderground v.1.15,2013-01-31 16:10:00,
2013-01-31 11:20:00,45.0,35.8,29.15,NNW,338,10.0,10.0,70,0.00,,,0.46,Wunderground v.1.15,2013-01-31 16:20:00,
2013-01-31 11:30:00,45.4,37.2,29.15,NW,304,6.0,6.0,73,0.00,,,0.46,Wunderground v.1.15,2013-01-31 16:30:00,
2013-01-31 11:40:00,45.4,35.8,29.15,North,360,9.0,10.0,69,0.00,,,0.46,Wunderground v.1.15,2013-01-31 16:40:00,
2013-01-31 11:50:00,45.5,35.2,29.16,NNW,329,8.0,8.0,67,0.00,,,0.46,Wunderground v.1.15,2013-01-31 16:50:00,
2013-01-31 12:00:00,44.7,34.8,29.17,WSW,248,6.0,6.0,68,0.00,,,0.46,Wunderground v.1.15,2013-01-31 17:00:00,
2013-01-31 12:10:00,43.8,32.0,29.17,WNW,296,8.0,8.0,63,0.00,,,0.46,Wunderground v.1.15,2013-01-31 17:10:00,
2013-01-31 12:20:00,43.6,32.2,29.18,SW,234,12.0,12.0,64,0.00,,,0.46,Wunderground v.1.15,2013-01-31 17:20:00,
2013-01-31 12:30:00,43.6,31.0,29.18,WSW,237,9.0,9.0,61,0.00,,,0.46,Wunderground v.1.15,2013-01-31 17:30:00,
2013-01-31 12:50:00,44.7,30.0,29.18,NW,321,9.0,9.0,56,0.00,,,0.46,Wunderground v.1.15,2013-01-31 17:50:00,
2013-01-31 12:59:00,44.9,29.2,29.19,NW,317,7.0,12.0,54,0.00,,,0.46,Wunderground v.1.15,2013-01-31 17:59:00,
2013-01-31 13:10:00,45.4,27.8,29.19,WSW,252,8.0,11.0,50,0.00,,,0.46,Wunderground v.1.15,2013-01-31 18:10:00,
2013-01-31 13:20:00,45.8,27.7,29.20,WNW,295,9.0,13.0,49,0.00,,,0.46,Wunderground v.1.15,2013-01-31 18:20:00,
2013-01-31 13:30:00,45.9,29.2,29.21,SW,223,6.0,6.0,52,0.00,,,0.46,Wunderground v.1.15,2013-01-31 18:30:00,
2013-01-31 13:40:00,45.7,29.1,29.22,SW,231,5.0,5.0,52,0.00,,,0.46,Wunderground v.1.15,2013-01-31 18:40:00,
2013-01-31 13:50:00,45.6,27.5,29.22,WSW,237,6.0,10.0,49,0.00,,,0.46,Wunderground v.1.15,2013-01-31 18:50:00,
2013-01-31 14:00:00,44.9,24.8,29.23,NW,321,10.0,10.0,45,0.00,,,0.46,Wunderground v.1.15,2013-01-31 19:00:00,
2013-01-31 14:09:00,43.9,24.4,29.24,West,269,9.0,9.0,46,0.00,,,0.46,Wunderground v.1.15,2013-01-31 19:09:00,
2013-01-31 14:20:00,43.8,26.3,29.25,North,5,6.0,6.0,50,0.00,,,0.46,Wunderground v.1.15,2013-01-31 19:20:00,
2013-01-31 14:30:00,43.7,22.6,29.25,West,271,8.0,12.0,43,0.00,,,0.46,Wunderground v.1.15,2013-01-31 19:30:00,
2013-01-31 15:00:00,41.3,19.3,29.28,WNW,302,9.0,9.0,41,0.00,,,0.46,Wunderground v.1.15,2013-01-31 20:00:00,
2013-01-31 15:10:00,41.5,20.6,29.29,NNE,26,8.0,8.0,43,0.00,,,0.46,Wunderground v.1.15,2013-01-31 20:10:00,
2013-01-31 15:20:00,41.5,21.2,29.30,NW,322,7.0,7.0,44,0.00,,,0.46,Wunderground v.1.15,2013-01-31 20:20:00,
2013-01-31 15:30:00,41.8,20.9,29.31,NW,314,7.0,7.0,43,0.00,,,0.46,Wunderground v.1.15,2013-01-31 20:30:00,
2013-01-31 15:40:00,41.3,21.0,29.32,WSW,238,7.0,7.0,44,0.00,,,0.46,Wunderground v.1.15,2013-01-31 20:40:00,
2013-01-31 15:59:00,40.8,18.9,29.33,WNW,293,8.0,19.0,41,0.00,,,0.46,Wunderground v.1.15,2013-01-31 20:59:00,
2013-01-31 16:10:00,40.5,19.7,29.33,West,267,7.0,10.0,43,0.00,,,0.46,Wunderground v.1.15,2013-01-31 21:10:00,
2013-01-31 16:20:00,40.2,20.5,29.34,NW,306,6.0,6.0,45,0.00,,,0.46,Wunderground v.1.15,2013-01-31 21:20:00,
2013-01-31 16:30:00,39.8,21.7,29.35,West,281,7.0,7.0,48,0.00,,,0.46,Wunderground v.1.15,2013-01-31 21:30:00,
2013-01-31 16:40:00,39.3,21.7,29.35,West,263,5.0,6.0,49,0.00,,,0.46,Wunderground v.1.15,2013-01-31 21:40:00,
2013-01-31 16:50:00,39.0,21.9,29.36,West,281,5.0,7.0,50,0.00,,,0.46,Wunderground v.1.15,2013-01-31 21:50:00,
2013-01-31 17:00:00,38.8,21.7,29.36,WNW,290,6.0,10.0,50,0.00,,,0.46,Wunderground v.1.15,2013-01-31 22:00:00,
2013-01-31 17:10:00,38.3,21.3,29.37,SW,234,5.0,7.0,50,0.00,,,0.46,Wunderground v.1.15,2013-01-31 22:10:00,
2013-01-31 17:20:00,38.6,20.1,29.38,NW,315,6.0,6.0,47,0.00,,,0.46,Wunderground v.1.15,2013-01-31 22:20:00,
2013-01-31 17:30:00,38.3,20.8,29.39,West,275,5.0,5.0,49,0.00,,,0.46,Wunderground v.1.15,2013-01-31 22:30:00,
2013-01-31 17:40:00,37.9,20.4,29.40,NW,317,4.0,5.0,49,0.00,,,0.46,Wunderground v.1.15,2013-01-31 22:40:00,
2013-01-31 17:50:00,37.3,21.3,29.41,WNW,284,4.0,4.0,52,0.00,,,0.46,Wunderground v.1.15,2013-01-31 22:50:00,
2013-01-31 18:00:00,36.9,21.3,29.42,WNW,290,5.0,6.0,53,0.00,,,0.46,Wunderground v.1.15,2013-01-31 23:00:00,
2013-01-31 18:10:00,36.7,21.2,29.42,NW,317,6.0,7.0,53,0.00,,,0.46,Wunderground v.1.15,2013-01-31 23:10:00,
2013-01-31 18:20:00,36.2,21.1,29.42,WNW,289,4.0,4.0,54,0.00,,,0.46,Wunderground v.1.15,2013-01-31 23:20:00,
2013-01-31 18:40:00,35.8,21.6,29.45,WSW,257,5.0,9.0,56,0.00,,,0.46,Wunderground v.1.15,2013-01-31 23:40:00,
2013-01-31 18:50:00,35.5,21.3,29.45,WSW,254,6.0,11.0,56,0.00,,,0.46,Wunderground v.1.15,2013-01-31 23:50:00,
2013-01-31 19:00:00,35.1,21.4,29.45,NW,317,5.0,5.0,57,0.00,,,0.46,Wunderground v.1.15,2013-02-01 00:00:00,
2013-01-31 19:10:00,34.8,20.7,29.46,West,269,6.0,6.0,56,0.00,,,0.46,Wunderground v.1.15,2013-02-01 00:10:00,
2013-01-31 19:20:00,34.5,20.4,29.46,WNW,289,5.0,5.0,56,0.00,,,0.46,Wunderground v.1.15,2013-02-01 00:20:00,
2013-01-31 19:30:00,34.4,20.7,29.48,West,275,5.0,5.0,57,0.00,,,0.46,Wunderground v.1.15,2013-02-01 00:30:00,
2013-01-31 19:39:00,34.1,20.9,29.48,West,261,4.0,6.0,58,0.00,,,0.46,Wunderground v.1.15,2013-02-01 00:39:00,
2013-01-31 20:09:00,33.1,21.5,29.49,NNW,327,5.0,5.0,62,0.00,,,0.46,Wunderground v.1.15,2013-02-01 01:09:00,
2013-01-31 20:19:00,32.9,20.5,29.50,West,271,6.0,6.0,60,0.00,,,0.46,Wunderground v.1.15,2013-02-01 01:19:00,
2013-01-31 20:30:00,32.8,20.0,29.51,NW,311,6.0,6.0,59,0.00,,,0.46,Wunderground v.1.15,2013-02-01 01:30:00,
2013-01-31 20:39:00,32.6,19.8,29.51,WNW,298,7.0,7.0,59,0.00,,,0.46,Wunderground v.1.15,2013-02-01 01:39:00,
2013-01-31 20:49:00,32.5,19.7,29.51,WNW,286,7.0,7.0,59,0.00,,,0.46,Wunderground v.1.15,2013-02-01 01:49:00,
2013-01-31 20:59:00,32.3,20.0,29.52,WSW,255,4.0,14.0,60,0.00,,,0.46,Wunderground v.1.15,2013-02-01 01:59:00,
2013-01-31 21:10:00,32.1,19.0,29.52,NW,325,5.0,7.0,58,0.00,,,0.46,Wunderground v.1.15,2013-02-01 02:10:00,
2013-01-31 21:19:00,32.0,18.9,29.53,WSW,254,3.0,3.0,58,0.00,,,0.46,Wunderground v.1.15,2013-02-01 02:19:00,
2013-01-31 21:30:00,32.1,17.7,29.53,WNW,300,4.0,7.0,55,0.00,,,0.46,Wunderground v.1.15,2013-02-01 02:30:00,
2013-01-31 21:40:00,32.1,16.9,29.54,NW,305,4.0,4.0,53,0.00,,,0.46,Wunderground v.1.15,2013-02-01 02:40:00,
2013-01-31 21:50:00,31.5,18.4,29.55,West,274,3.0,7.0,58,0.00,,,0.46,Wunderground v.1.15,2013-02-01 02:50:00,
2013-01-31 22:00:00,31.1,19.2,29.55,WNW,300,4.0,7.0,61,0.00,,,0.46,Wunderground v.1.15,2013-02-01 03:00:00,
2013-01-31 22:10:00,30.9,19.4,29.55,NNW,336,5.0,5.0,62,0.00,,,0.46,Wunderground v.1.15,2013-02-01 03:10:00,
2013-01-31 22:30:00,30.5,18.3,29.56,West,274,5.0,8.0,60,0.00,,,0.46,Wunderground v.1.15,2013-02-01 03:30:00,
2013-01-31 22:39:00,30.3,18.5,29.57,West,269,4.0,8.0,61,0.00,,,0.46,Wunderground v.1.15,2013-02-01 03:39:00,
2013-01-31 22:50:00,30.1,19.0,29.57,NW,309,5.0,5.0,63,0.00,,,0.46,Wunderground v.1.15,2013-02-01 03:50:00,
2013-01-31 23:00:00,29.9,19.2,29.57,NW,309,5.0,8.0,64,0.00,,,0.46,Wunderground v.1.15,2013-02-01 04:00:00,
2013-01-31 23:10:00,29.9,18.8,29.57,SW,223,7.0,7.0,63,0.00,,,0.46,Wunderground v.1.15,2013-02-01 04:10:00,
2013-01-31 23:30:00,29.7,18.6,29.57,West,279,7.0,7.0,63,0.00,,,0.46,Wunderground v.1.15,2013-02-01 04:30:00,
2013-01-31 23:40:00,29.7,18.6,29.57,South,171,7.0,8.0,63,0.00,,,0.46,Wunderground v.1.15,2013-02-01 04:40:00,
2013-01-31 23:50:00,29.6,18.5,29.57,SW,236,7.0,10.0,63,0.00,,,0.46,Wunderground v.1.15,2013-02-01 04:50:00,